Location: Kalberh�ni
(46.4610°N, 7.2453°E)
Time: 02:35:04
(UTC+00:00)

Cosmos 1975 Rocket - Pass Details

Date: 20 June 2021
Orbit: 604 x 633 km, 82.5° (Epoch: 25 July)

Event Time Altitude Azimuth Distance (km) Brightness Sun altitude
Rises 20:47:59 0° 202° (SSW) 2,863 6.2 -10.8°
Reaches altitude 10° 20:50:14 10° 208° (SSW) 1,968 5.4 -11.0°
Maximum altitude 20:54:27 47° 283° (WNW) 818 4.1 -11.5°
Drops below altitude 10° 20:58:44 10° 358° (N) 2,001 6.6 -11.9°
Sets 21:01:04 0° 5° (N) 2,917 7.4 -12.1°
